RH
98 98 98 93 87 84 77 74 74 75 73 70 69 66 68 67 67 66 66 67 69 69 66 69 68 67 65 63 64 63 63 63 68 77 81 78 71 77 83 83 78 75 81 75 66 53 28 10 5 0 18 64
79 85 93 97 95 93 83 76 73 74 74 73 72 70 70 68 68 67 67 67 67 70 68 69 68 68 68 66 66 64 64 62 65 74 79 78 72 73 78 80 78 78 86 80 69 55 27 9 9 2 8 50
57 63 72 82 90 96 94 86 77 73 73 73 72 71 71 70 71 71 69 68 67 70 70 70 70 68 68 67 69 67 65 63 64 71 75 75 73 72 71 76 83 83 88 89 72 56 43 30 24 25 14 23
49 50 53 60 69 80 90 94 90 84 81 77 74 71 71 71 73 73 72 72 69 68 68 69 70 69 68 67 67 66 64 64 64 68 74 76 74 72 70 70 80 85 89 93 76 60 57 48 42 50 39 16
46 48 49 50 53 58 68 80 87 89 89 86 81 75 70 70 72 74 74 76 73 69 67 67 70 68 68 66 65 63 61 63 63 64 71 79 78 74 73 69 74 84 92 96 79 64 63 57 55 58 55 37
30 38 44 47 50 51 53 59 66 72 79 84 85 83 76 72 72 74 74 76 77 73 68 66 69 68 68 66 63 62 62 63 62 62 67 75 80 76 77 73 72 82 93 99 83 68 67 63 65 62 56 49
13 19 24 31 39 45 49 52 54 56 63 72 80 83 84 80 76 74 73 73 76 75 71 67 65 64 66 66 62 62 65 65 60 61 65 70 78 78 78 75 71 78 87 98 90 72 72 69 67 65 56 50
11 11 11 13 18 25 33 41 48 52 55 61 68 75 82 86 84 80 76 72 73 75 74 70 65 61 62 65 63 61 63 65 61 60 64 67 76 78 77 75 71 76 82 95 95 77 73 72 69 65 58 51
12 12 10 9 10 10 14 19 28 37 46 53 57 63 69 77 84 87 86 80 74 75 75 73 69 64 62 63 64 63 60 62 62 61 64 65 73 79 76 73 73 76 81 91 94 83 74 72 70 65 59 49
13 13 12 10 10 9 9 9 11 15 24 36 46 53 56 62 72 81 89 90 83 77 76 74 72 68 65 62 62 64 61 60 61 62 64 64 69 77 76 72 75 77 79 85 90 87 78 73 71 64 63 51
13 14 14 12 10 9 9 9 9 8 10 15 26 39 48 52 58 66 77 87 90 84 79 75 73 71 68 66 63 63 63 61 60 60 64 65 66 73 77 72 75 79 78 81 85 86 80 73 70 64 64 55
15 15 16 14 13 11 9 9 8 8 9 8 11 21 36 46 50 55 61 73 84 87 86 79 75 73 70 67 66 64 63 63 61 59 63 67 66 70 76 74 74 79 79 80 83 84 79 72 69 64 63 53
19 16 17 17 16 14 13 11 9 9 8 8 8 10 24 40 46 49 52 58 67 78 87 87 81 76 73 69 66 66 64 65 64 61 61 65 69 70 74 75 73 76 78 80 82 81 76 69 67 64 61 54
23 18 17 18 21 20 18 15 13 12 10 8 9 9 17 36 45 47 51 53 56 64 76 88 90 83 78 74 70 68 65 65 65 64 62 62 69 73 73 73 71 72 75 76 77 76 72 68 67 65 62 59
24 21 17 18 24 26 24 24 21 17 16 12 11 10 18 34 43 46 49 51 52 55 61 74 86 89 85 80 77 74 70 67 67 66 64 62 66 72 73 72 70 70 71 72 73 71 70 68 66 65 65 63
22 22 19 19 24 30 29 30 31 27 25 22 18 15 20 32 40 45 49 50 52 53 55 59 68 82 91 89 82 80 77 72 68 67 66 64 64 69 73 72 70 71 71 71 70 69 69 68 67 66 65 65
21 21 20 20 25 33 34 33 39 38 32 29 28 28 28 33 37 44 49 51 52 53 55 56 56 65 83 95 90 84 83 80 74 70 68 66 63 66 72 73 71 72 74 73 71 70 69 69 68 67 66 65
20 21 21 23 27 34 36 34 38 42 38 32 32 37 42 41 39 42 49 52 53 55 56 56 56 56 67 89 98 91 86 85 82 76 72 69 65 65 70 72 72 72 74 74 73 73 70 70 69 68 67 65
22 22 22 25 29 33 36 36 37 39 40 37 35 38 42 41 37 38 45 51 55 57 58 58 57 56 59 75 92 97 92 88 86 83 80 75 70 68 70 73 74 73 73 73 73 74 72 71 70 69 69 66
24 24 24 25 28 30 32 34 37 39 39 40 38 37 37 34 33 34 37 44 52 54 56 60 60 57 56 63 77 92 98 94 87 85 84 83 80 77 75 76 77 76 75 74 73 73 73 73 72 70 69 68
28 27 27 25 27 28 30 32 35 37 38 38 37 35 35 34 34 34 33 35 42 45 44 51 58 59 56 56 62 75 93 99 94 88 85 85 86 85 81 79 79 79 78 78 76 75 75 74 73 71 70 69
31 31 31 30 28 27 29 31 32 33 34 37 38 36 34 35 35 34 34 33 34 36 35 38 47 57 60 57 54 59 76 94 98 94 91 87 86 86 87 85 82 82 81 80 79 77 76 75 74 72 71 70
31 31 32 33 34 33 33 34 35 35 35 37 39 39 37 36 36 35 35 35 34 35 35 35 44 60 68 64 57 52 58 75 92 99 97 94 89 87 87 86 82 81 80 81 81 79 77 76 74 74 73 72
28 29 30 34 39 41 41 41 41 40 39 40 39 39 40 38 36 37 38 37 37 38 36 36 46 62 70 71 65 57 54 59 75 93 100 99 96 92 90 89 86 83 83 84 82 80 78 76 74 73 73 72
28 29 31 37 45 47 48 47 45 43 41 40 39 38 39 40 38 38 40 40 38 39 39 36 41 51 58 66 71 68 64 61 63 75 89 98 99 97 96 95 92 89 88 87 86 83 78 74 71 69 68 67
32 34 39 46 51 52 52 51 49 47 44 40 40 39 38 40 40 40 40 41 40 40 40 38 38 41 44 52 62 66 67 69 67 65 73 88 99 99 97 95 94 92 90 90 88 82 75 67 63 60 58 58
38 42 47 49 50 51 53 54 52 51 49 44 42 41 41 41 41 43 42 41 42 42 42 41 39 40 41 42 49 59 62 68 74 73 69 77 92 98 96 92 92 92 89 89 85 80 78 70 67 64 52 50
42 45 43 41 42 46 50 51 50 52 52 48 44 44 44 44 45 45 45 44 43 44 44 43 42 40 41 40 44 55 61 63 70 77 76 75 85 96 98 92 88 87 86 87 84 81 79 67 70 78 61 50
45 43 39 41 44 48 52 54 55 56 55 50 45 45 46 48 49 48 49 48 45 46 46 45 44 42 41 41 43 50 59 62 63 72 79 78 82 91 99 97 89 85 84 85 83 80 76 65 70 78 61 52
45 43 43 51 57 61 64 65 64 62 58 52 47 46 47 50 53 52 52 52 49 49 48 48 47 45 44 42 43 46 52 58 60 63 71 78 84 88 96 100 96 92 88 86 83 78 74 68 67 65 51 49
46 45 47 52 60 66 69 70 69 63 56 50 47 46 49 53 55 56 56 55 54 52 51 50 49 48 47 45 45 44 45 50 55 59 64 73 83 87 91 98 100 99 95 91 87 82 78 69 60 51 45 47
Wind_Speed
10 7 7 9 10 10 11 12 12 14 15 16 16 16 16 16 17 18 18 18 18 17 17 17 17 17 17 17 16 17 17 18 18 18 18 18 18 17 16 16 17 18 22 22 17 12 10 9 9 11 19 24
18 14 9 8 8 9 11 12 13 14 15 16 17 17 17 17 16 18 19 19 19 18 18 19 18 17 17 17 17 17 18 18 18 18 19 19 18 18 17 16 16 19 24 22 19 15 12 11 10 9 14 23
22 21 18 14 10 10 12 12 13 14 16 17 18 18 18 18 17 17 19 20 21 20 19 19 19 19 17 18 18 18 19 19 18 19 20 20 20 19 18 17 15 19 25 22 20 19 16 14 12 9 9 17
24 23 22 20 18 14 12 12 13 14 16 17 18 20 20 20 19 18 19 21 22 22 21 20 20 20 18 18 19 19 19 19 20 20 21 21 21 21 20 19 17 20 25 22 22 22 19 17 15 12 9 12
27 25 23 22 21 20 17 14 12 13 15 16 17 20 21 22 21 20 20 20 23 24 23 21 21 20 19 19 20 20 20 20 21 20 21 22 22 22 21 20 19 23 25 21 22 24 21 20 17 14 12 11
30 28 26 25 23 22 20 19 17 16 17 16 16 17 20 23 23 23 22 20 22 24 23 23 23 22 20 20 20 20 21 21 22 21 21 22 23 23 22 22 22 25 27 21 22 25 22 21 18 15 14 13
34 32 30 28 26 25 23 21 20 20 21 19 18 16 16 21 23 25 25 23 21 23 25 26 26 25 22 22 22 22 22 21 21 22 22 22 24 23 23 24 24 26 28 24 23 25 23 21 19 16 15 14
34 34 32 32 30 29 27 25 23 21 22 20 20 20 16 17 20 24 26 26 23 23 26 29 29 28 26 25 25 25 24 22 21 24 23 22 23 24 24 26 27 27 29 28 26 26 25 22 20 18 17 16
34 33 33 33 32 32 31 29 28 26 24 22 21 22 21 20 19 20 24 26 26 24 25 30 31 31 30 28 28 28 26 24 23 25 25 23 23 25 26 27 29 30 31 31 29 28 27 24 21 19 17 17
32 32 32 32 32 32 33 32 31 30 28 26 24 24 23 24 23 20 20 22 26 26 26 29 31 32 33 32 32 31 29 27 26 27 27 25 23 25 28 28 30 31 32 33 31 28 28 26 24 21 18 17
32 31 31 31 31 31 32 31 31 31 31 30 28 25 25 25 25 25 22 20 23 26 27 29 32 33 34 34 35 35 33 31 30 29 29 27 26 25 27 30 31 32 33 34 32 29 28 27 26 23 20 19
30 30 29 30 31 31 31 30 30 29 30 30 31 29 27 26 25 25 24 22 21 23 25 27 31 34 36 37 36 35 35 34 33 32 31 30 29 27 27 30 32 33 33 33 32 30 29 27 27 24 21 21
29 29 29 29 29 29 29 29 29 28 28 28 29 30 30 29 27 26 26 24 22 23 24 24 27 32 35 38 38 37 37 36 36 35 35 33 32 30 29 31 33 33 33 33 32 31 30 28 27 25 23 22
27 29 31 30 27 27 27 27 27 27 27 27 26 27 29 31 30 28 27 26 23 23 23 23 25 29 32 35 38 39 39 39 38 38 38 38 36 33 31 33 34 34 34 33 33 32 31 29 28 27 25 24
26 28 31 31 27 26 26 26 26 25 25 25 24 25 27 30 31 30 28 26 24 23 23 24 24 26 30 32 35 38 41 41 41 41 41 41 41 37 35 35 35 34 35 34 34 33 32 30 29 28 26 25
25 27 30 30 28 27 26 26 25 25 24 24 24 24 25 27 30 31 30 27 25 23 23 24 24 25 27 30 34 39 40 41 43 44 43 42 43 42 38 37 37 36 36 36 36 35 34 32 30 30 28 27
24 26 29 30 28 27 26 26 26 25 24 24 24 25 25 27 28 30 31 29 27 24 22 23 23 24 25 27 32 37 38 39 41 44 45 44 44 44 41 39 40 39 38 38 38 37 36 34 33 32 31 30
24 26 28 28 27 26 26 27 27 26 24 25 26 27 27 27 29 30 31 30 28 26 24 23 23 23 23 25 28 32 35 38 39 40 43 46 46 45 43 43 43 43 42 40 40 39 39 38 37 36 34 33
24 25 27 27 26 25 26 27 27 27 26 26 27 27 27 27 29 30 31 31 29 27 26 25 24 23 21 22 25 28 33 38 39 39 40 42 46 46 44 44 44 45 44 43 43 42 41 40 39 38 37 36
25 25 25 26 26 26 27 27 27 27 27 27 26 26 26 26 27 29 30 31 30 30 28 26 25 25 23 21 22 25 29 36 40 41 41 39 39 43 45 44 44 45 45 45 46 45 44 42 40 39 38 38
27 27 26 26 26 27 28 28 27 27 26 26 25 25 26 25 26 28 29 30 30 31 31 29 27 26 25 24 22 22 25 31 39 41 42 41 39 39 42 44 44 44 44 44 45 45 45 43 41 40 40 39
28 29 29 28 27 28 28 28 28 29 28 27 25 24 24 24 25 27 29 30 30 31 32 31 29 27 26 25 24 23 24 25 31 38 40 42 43 41 39 41 43 43 44 43 43 43 45 44 43 42 41 40
29 30 31 30 30 29 28 28 29 30 29 27 25 24 23 24 25 27 29 28 29 31 32 31 29 27 25 24 24 23 24 25 25 29 35 38 41 43 41 41 44 45 44 42 41 42 43 43 44 43 41 40
30 31 31 31 30 28 27 28 28 28 26 25 24 24 23 23 24 26 28 28 28 30 30 30 28 25 23 22 22 21 22 24 25 24 27 33 37 40 40 41 42 44 43 39 37 36 37 38 39 40 40 40
28 28 29 29 27 25 26 27 28 27 27 26 25 24 23 23 23 24 27 28 28 29 29 30 28 26 24 22 21 20 21 21 23 25 24 26 31 34 34 36 36 39 39 31 23 21 24 27 29 33 36 38
26 25 23 24 24 25 26 26 26 27 27 28 28 26 24 23 22 22 25 28 29 30 29 28 28 27 25 24 22 22 21 21 21 23 25 24 24 27 29 31 31 32 31 24 21 16 11 13 18 23 28 33
22 21 21 23 25 26 26 26 27 28 28 27 28 27 24 23 22 21 24 27 29 31 30 28 28 28 27 26 24 23 22 22 21 21 23 24 23 23 24 27 27 27 27 26 24 17 8 6 9 12 17 26
20 22 26 27 29 29 28 28 29 28 28 26 26 26 25 23 22 22 23 26 28 32 31 29 29 29 29 28 25 24 23 22 21 21 21 23 23 22 20 21 23 26 29 30 21 10 4 3 4 7 10 18
22 26 28 29 29 29 28 28 28 27 25 24 24 25 26 24 23 23 24 24 27 30 32 31 30 30 29 28 26 25 23 22 22 21 21 21 22 23 21 20 21 23 27 33 28 17 8 4 4 8 8 8
24 26 27 26 26 25 24 24 25 23 22 23 24 26 27 26 26 25 24 24 25 28 30 31 31 30 30 28 26 26 25 24 23 22 22 20 20 22 22 22 21 20 24 31 35 31 21 13 9 6 7 6
24 24 25 25 24 24 23 23 24 24 23 24 26 27 26 27 27 26 24 23 24 26 28 31 32 32 31 29 27 27 27 27 26 25 23 21 19 20 21 22 20 20 22 24 30 35 33 27 19 9 11 10
Wind_Direction
357 317 260 258 254 246 240 240 249 251 252 252 249 250 248 246 243 238 233 228 222 221 224 224 223 224 226 227 224 224 225 223 223 222 211 199 197 203 206 195 194 194 178 186 203 194 191 195 185 184 179 177
21 9 341 299 276 258 248 244 252 257 258 257 255 255 255 255 251 243 237 231 225 222 223 224 223 221 224 227 227 228 227 226 225 225 216 206 203 203 209 205 199 193 180 185 202 196 188 182 176 179 180 181
31 27 17 1 339 300 278 263 257 261 264 261 259 258 258 260 259 250 241 235 229 226 225 225 223 218 221 226 226 228 230 230 228 226 220 212 210 206 211 212 203 191 181 186 199 198 196 193 185 180 183 186
27 28 25 21 15 355 325 293 270 262 262 262 260 259 257 257 260 258 247 240 234 230 228 226 224 219 219 226 226 226 228 231 229 228 223 216 211 207 208 210 212 200 186 185 196 200 202 202 200 197 196 195
22 21 20 19 20 18 10 349 321 295 279 270 261 255 253 255 258 262 257 246 237 232 229 225 223 222 220 225 229 227 227 229 230 230 228 222 213 209 206 208 214 202 187 183 195 202 203 206 207 204 206 207
23 20 18 15 13 15 14 11 3 349 331 309 286 266 252 251 255 260 261 254 244 234 228 221 220 224 223 225 231 230 229 229 230 231 231 226 217 211 205 207 212 201 190 184 195 204 205 207 210 206 210 215
23 21 19 16 12 9 6 5 5 2 359 347 329 309 272 256 257 259 261 258 252 242 232 225 225 232 229 227 231 232 234 236 231 229 234 232 223 215 207 208 213 203 193 187 194 207 210 209 212 211 213 220
21 20 18 16 13 9 5 2 359 355 355 356 351 341 319 292 277 266 264 261 256 249 239 233 233 236 235 232 231 231 236 242 236 229 235 237 228 220 213 211 211 205 199 196 199 208 215 215 214 215 217 223
18 17 16 14 12 8 6 3 359 354 349 348 348 347 340 329 312 285 272 266 260 254 244 237 234 233 233 233 230 229 231 236 236 232 235 239 230 220 217 214 210 207 204 204 204 206 213 217 217 216 220 225
13 13 13 12 10 7 4 2 358 354 351 347 344 341 339 336 334 318 294 276 265 256 248 240 234 229 228 229 228 229 227 228 232 234 236 239 234 224 219 217 212 210 210 211 208 206 209 216 219 217 220 227
9 8 6 5 5 4 2 359 356 353 349 347 344 341 338 336 336 334 326 306 280 261 250 241 234 228 226 226 226 227 226 225 227 232 236 239 240 233 222 217 214 211 213 216 213 208 209 213 218 216 217 224
3 3 0 358 357 357 357 355 353 351 346 343 340 339 339 339 336 334 334 327 306 282 264 247 237 231 228 227 226 225 225 225 224 225 231 236 240 238 225 217 214 212 213 217 216 212 210 213 217 216 215 219
354 356 354 351 349 349 349 348 347 345 343 340 335 333 333 336 338 336 333 329 321 308 290 270 251 238 230 228 228 226 223 224 225 223 224 229 236 237 228 218 214 213 214 216 217 214 213 215 219 217 215 218
344 348 349 344 340 340 341 341 341 339 337 336 331 327 326 328 333 335 335 331 325 318 309 295 273 253 239 231 228 227 226 225 225 224 222 223 230 234 228 220 216 214 214 216 217 215 216 219 222 221 219 222
336 339 342 339 332 329 332 332 331 331 330 330 327 321 319 321 325 330 333 332 328 321 316 311 297 276 257 243 233 228 228 228 226 225 224 222 225 229 227 221 217 216 215 217 218 217 218 221 225 227 226 228
332 332 334 333 326 320 323 324 321 321 321 322 321 317 314 314 318 325 329 331 329 325 319 312 310 298 278 262 249 237 230 227 227 225 225 224 223 226 227 223 220 219 219 220 221 221 222 223 227 231 233 234
331 329 329 328 323 315 314 318 315 311 313 316 316 313 311 310 312 319 326 329 327 327 323 314 309 307 295 281 265 251 238 231 228 223 222 224 223 224 225 223 222 220 220 222 224 226 226 227 229 234 236 238
333 330 327 325 320 313 309 311 310 306 306 310 313 310 308 309 309 312 319 325 328 327 324 319 311 308 304 296 282 265 250 239 233 225 222 222 220 221 222 221 221 220 220 221 224 227 228 229 231 234 237 240
336 333 329 325 320 314 309 308 305 302 302 306 309 308 307 308 309 310 312 316 323 327 326 323 316 310 307 305 297 281 261 247 240 233 227 223 218 217 218 219 219 220 221 221 222 225 227 229 230 231 234 238
335 333 329 325 319 313 309 305 302 300 300 303 305 306 307 310 313 313 312 312 314 319 323 323 319 314 308 306 305 296 275 253 243 238 232 227 221 215 214 215 216 219 220 221 222 224 226 227 228 230 232 234
339 336 333 327 320 314 309 303 300 299 297 298 300 304 308 311 314 314 314 314 312 314 316 317 318 316 313 308 304 303 291 263 245 239 233 229 226 220 214 212 213 215 217 218 220 221 223 226 227 229 231 233
341 339 336 331 323 315 309 303 300 299 295 293 292 296 304 309 311 310 310 311 312 314 315 315 314 313 314 313 308 302 299 284 256 242 234 228 226 224 218 212 211 213 214 216 217 219 221 223 226 229 231 232
338 337 336 333 326 319 313 309 306 302 296 292 290 290 297 305 307 306 304 305 310 313 314 315 313 313 313 310 312 307 299 295 280 257 239 229 226 223 221 218 215 214 214 215 215 217 220 222 224 226 229 230
336 335 333 330 326 323 321 321 319 313 305 302 300 296 292 296 302 301 296 297 305 309 312 313 312 315 317 311 311 312 305 297 295 285 257 238 229 223 221 220 219 216 213 212 213 216 219 221 223 223 225 227
332 331 329 326 323 324 324 323 321 318 314 311 307 304 298 293 295 295 291 292 299 303 306 308 308 309 314 316 314 313 314 305 297 295 284 261 241 228 222 219 218 215 210 205 205 213 218 219 220 222 222 224
330 330 328 325 323 323 322 319 317 315 314 312 308 304 302 298 295 290 289 291 294 295 297 302 304 305 307 311 314 313 314 313 306 297 293 287 262 240 228 223 221 214 204 197 200 203 206 216 222 225 224 224
330 328 326 323 320 318 315 312 311 309 309 310 308 305 302 302 299 290 287 291 292 288 288 295 299 301 304 305 307 310 310 310 311 303 296 292 279 257 239 228 223 216 205 201 202 196 183 199 216 227 229 228
324 322 322 321 318 314 311 308 307 306 304 304 307 308 306 304 302 297 293 294 294 288 283 287 293 296 299 301 302 302 305 306 307 306 299 293 285 271 254 234 223 219 216 211 201 180 177 177 186 222 224 224
320 324 325 321 318 316 314 312 309 304 301 302 307 309 308 306 305 304 300 298 296 291 283 282 287 292 293 295 298 298 298 299 301 302 299 293 286 275 263 249 233 221 220 220 211 199 192 151 175 223 208 199
321 326 326 320 316 313 311 309 305 302 300 302 306 306 304 304 303 301 299 297 295 291 287 283 283 286 288 289 292 294 295 294 293 294 294 293 284 275 268 261 250 232 224 225 221 217 217 217 229 223 167 151
320 324 323 318 312 307 304 300 298 298 299 300 301 300 298 300 302 300 296 296 295 293 290 287 284 282 284 284 284 288 290 289 288 286 287 288 282 276 270 263 257 242 230 227 227 227 228 234 251 246 185 183